Powrót do katalogu

STARLINK-32411

AktywnyŁącznośćVLEO
NORAD 61547·PAYLOAD·🇺🇸 United States

Wystrzelony Oct 15, 2024 z Vandenberg Space Force Base

Loading…

Następne Przeloty (najbliższe 24 godziny)

TLE

ŚwieżeSource: CelesTrak SupGP

Epoka: Sep 14, 2026, 20:49 UTC

1 61547C 24184R   26257.86784722  .00040662  00000+0  12013-2 0  2571
2 61547  53.1586 212.3714 0001341  91.9301 183.0544 15.34372714    18

Śledź STARLINK-32411 w czasie rzeczywistym z AllMySat

Download on the App Store